Regional Weather Roundup
Issued by NWS

Home | Current Version | Previous Version | Text Only | Print | Product List | Glossary On
Versions: 1 2 3 4 5 6 7 8 9 10 11 12 13 14 15 16 17 18 19 20 21 22 23 24 25 26 27 28 29 30 31 32 33 34 35 36 37 38 39 40 41 42 43 44 45 46 47 48 49 50
000
ASCA44 KEWX 260120
RWRMX

LATIN AMERICA AND CARIBBEAN REGIONAL WEATHER ROUNDUP
NATIONAL WEATHER SERVICE AUSTIN/SAN ANTONIO TX
700 PM CST SUN JAN 25 2015

NOTE: "FAIR" INDICATED FEW OR NO CLOUDS BELOW 12,000 FEET WITH NO
SIGNIFICANT WEATHER AND/OR OBSTRUCTIONS TO VISIBILITY.

BAJA CALIFORNIA

CITY           SKY/WX    TMP DP  RH WIND       PRES   REMARKS
LORETO         CLOUDY    66  66 100 NE6       29.97S
LA PAZ         CLOUDY    64  57  77 N7        29.98
MEXICALI       MOCLDY    75  28  17 W6        30.00
S.J. DEL CABO  CLOUDY    64  55  72 W2        30.00S
TIJUANA        MOCLDY    75  18  11 E8        30.01R

NORTHWESTERN MEXICO

CITY           SKY/WX    TMP DP  RH WIND       PRES   REMARKS
CULIACAN       CLOUDY    75  64  69 CALM      29.96
DURANGO        CLOUDY    50  37  62 W5        30.31R WCI  48
GUAYMAS        MOCLDY    68  57  68 S12       29.94
HERMOSILLO     CLOUDY    81  36  19 S5        30.00
CD. JUAREZ     MOCLDY    55  28  35 CALM      30.19
LOS MOCHIS     CLOUDY    70  55  60 N5        29.97S
OBREGON        CLOUDY    70  50  49 CALM      29.96

NORTHEASTERN MEXICO

CITY           SKY/WX    TMP DP  RH WIND       PRES   REMARKS
CHIHUAHUA      MOCLDY    54  19  26 N7        30.26
MATAMOROS      CLOUDY    61  52  72 CALM      30.16
MONTERREY      CLOUDY    63  36  36 CALM      30.18R
NUEVO LAREDO   PTCLDY    63  43  48 N6        30.16
PIEDRAS NEGRAS MOCLDY    63  43  48 NW6       30.20R
REYNOSA        MOCLDY    61  39  44 W3        30.14
SALTILLO       CLOUDY    59  41  51 CALM      30.30R
TORREON        CLOUDY    54  30  40 CALM      30.24R
CD. VICTORIA   CLOUDY    61  48  63 E2        30.16

WESTERN MEXICO

CITY           SKY/WX    TMP DP  RH WIND       PRES   REMARKS
AGUASCALIENTES LGT RAIN  61  45  55 SW9       30.27
COLIMA         CLOUDY    73  61  64 CALM      30.02R
DEL BAJIO      CLOUDY    66  41  39 CALM      30.30R
GUADALAJARA    CLOUDY    61  52  72 CALM      30.20
MANZANILLO     MOCLDY    79  72  78 CALM      29.85R
MAZATLAN       LGT RAIN  70  64  83 E8        29.97R
P. VALLARTA    CLOUDY    79  70  73 CALM      29.92R
URUAPAN        CLOUDY    64  57  77 CALM      30.18R
ZACATECAS      CLOUDY    55  39  54 NW6       30.30R

CENTRAL MEXICO

CITY           SKY/WX    TMP DP  RH WIND       PRES   REMARKS
CUERNAVACA     CLOUDY    73  48  40 CALM      30.09R
MEXICO CITY    CLOUDY    66  39  37 N6        30.28R
MORELIA        MOCLDY    64  48  55 SW3       30.22
POZA RICA      MOCLDY    63  54  72 NE7       30.17R
PUEBLA         CLOUDY    57  46  67 E6        30.29R
QUERETARO      CLOUDY    64  45  48 NE3       30.28R
S. LUIS POTOSI CLOUDY    64  41  42 NE8       30.23R
TAMPICO        MOCLDY    61  50  67 E12       30.14R
TOLUCA         CLOUDY    57  41  54 E5        30.35R

SOUTHERN MEXICO

CITY           SKY/WX    TMP DP  RH WIND       PRES   REMARKS
ACAPULCO       MOCLDY    81  73  78 W8        29.85R
B. DE HUATULCO MOCLDY    77  70  78 CALM      29.93
OAXACA         MOCLDY    72  45  37 NE14      30.13R
P. ESCONDIDO   PTCLDY    82  72  69 CALM      30.00F
VERACRUZ       PTCLDY    64  57  77 N9        30.11R
ZIHUATANEJO    MOCLDY    81  70  69 CALM      29.87R

YUCATAN PENINSULA

CITY           SKY/WX    TMP DP  RH WIND       PRES   REMARKS
CAMPECHE       CLEAR     72  63  73 NW12      30.05R
CANCUN         PTCLDY    66  61  82 N3        30.04F
CHETUMAL       PTCLDY    75  68  78 CALM      30.03R
CD. DEL CARMEN CLOUDY    73  61  64 NE6       30.07
COZUMEL        MOCLDY    70  61  73 N14       30.05R
MERIDA         CLEAR     70  55  60 N7        30.07R
MINATITLAN     CLOUDY    68  61  77 N9G21     30.05
TAPACHULA      CLEAR     81  72  74 CALM      29.89R
TUX. GUTIERREZ CLEAR     66  57  72 N23       30.02R
VILLAHERMOSA   DRIZZLE   68  64  88 NE6       30.09R

CENTRAL AMERICA

CITY           SKY/WX    TMP DP  RH WIND       PRES   REMARKS

CARIBBEAN

CITY           SKY/WX    TMP DP  RH WIND       PRES   REMARKS
ARUBA          PTCLDY    79  73  83 E20       29.86S
KINGSTON       MOCLDY    79  72  78 E9        29.94R
NASSAU         MOCLDY    70  59  68 W3        30.00R
SAN JUAN       PTCLDY    77  68  73 E3        30.02R
SANTO DOMINGO  PTCLDY    77  72  83 E5        29.97S
ST. KITTS      PTCLDY    77  70  78 E13       30.03R
ST. MAARTEN    PTCLDY    79  70  73 E8        30.03S

$$



USA.gov is the U.S. government's official web portal to all federal, state and local government web resources and services.